Regional Weather Roundup
Issued by NWS San Diego, CA

Home | Current Version | Previous Version | Text Only | Print | Product List | Glossary On
Versions: 1 2 3 4 5 6 7 8 9 10 11 12 13 14 15 16 17 18 19 20 21 22 23 24 25 26 27 28 29 30 31 32 33 34 35 36 37 38 39 40 41 42 43 44 45 46 47 48 49 50
675
ASUS46 KSGX 070811
RWRSGX

SAN DIEGO HOURLY WEATHER ROUNDUP
NATIONAL WEATHER SERVICE SAN DIEGO CA
1200 AM PST SUN FEB 07 2016

NOTE: "FAIR" INDICATES FEW OR NO CLOUDS BELOW 12,000 FEET WITH NO
SIGNIFICANT WEATHER AND/OR OBSTRUCTIONS TO VISIBILITY.

CAZ042-043-060-061-PZZ750-775-070900-

GREATER SAN DIEGO AREA

CITY           SKY/WX    TMP DP  RH WIND       PRES   REMARKS
LINDBERGH FLD  CLEAR     57  30  35 CALM      30.16S
NATIONAL CITY    N/A     52  38  59 CALM      30.15S
CHULA VISTA      N/A     50  37  59 CALM      30.08S
IMPERIAL BEACH CLEAR     53  28  38 NE6       30.15S
BROWN FIELD    CLEAR     55  22  27 NE5       30.15S
MIRAMAR MCAS   CLEAR     51  30  44 E6        30.15R
MONTGOMERY FLD CLEAR     50  32  50 CALM      30.16R

$$

NORTH SAN DIEGO COUNTY

CITY           SKY/WX    TMP DP  RH WIND       PRES   REMARKS
CAMP PENDLETON CLEAR     42  35  76 S3        30.15S
OCEANSIDE AP   CLEAR     50  31  48 NE8       30.15S
OCEANSIDE HBR    N/A     54  33  44 NE10      30.16F
VISTA            N/A     53  29  39 CALM      30.15R
CARLSBAD       CLEAR     57  27  31 E3        30.15R
DEL MAR          N/A     59  27  29 CALM      30.17S
FALLBROOK        N/A     62  24  23 NE3       30.15S
ESCONDIDO        N/A     51  34  52 CALM      30.17R
SAN MARCOS       N/A     56  26  32 CALM      30.14S
POWAY            N/A     48  31  51 CALM      30.18R

$$

EAST SAN DIEGO COUNTY

CITY           SKY/WX    TMP DP  RH WIND       PRES   REMARKS
RAMONA         CLEAR     62  14  15 E8        30.17R
SANTEE LAKES     N/A     46  33  61 CALM      30.16S
LA MESA          N/A     60  28  29 CALM      30.08F
JAMUL            N/A     47  23  39 CALM      30.17S
DESCANSO N       N/A     60  -4   7 NE18      30.08S
MT. LAGUNA OBS   N/A     47  -9   9 E15       29.83R
CAMPO            N/A     55  14  19 CALM      30.18R

$$

ORANGE COUNTY AND THE LOS ANGELES BASIN

CITY           SKY/WX    TMP DP  RH WIND       PRES   REMARKS
JOHN WAYNE AP  CLEAR     56  30  37 CALM      30.14F
LAGUNA BEACH     N/A     50  31  48 CALM      30.10F
LAKE FOREST FR   N/A     67  11  11 NE6       30.03F
HUNTINGTON BCH   N/A     50  35  56 CALM      30.16S
LOS ALAMITOS   FAIR      60  25  26 N6        30.15S
FULLERTON      CLEAR     61  25  25 CALM      30.15R
LONG BEACH     CLEAR     56  33  42 NW6       30.15F
L.A. AP        CLEAR     59  29  31 N3        30.16S
L.A. DOWNTOWN  CLEAR     61  27  27 CALM      30.16S

$$

THE INLAND EMPIRE

CITY           SKY/WX    TMP DP  RH WIND       PRES   REMARKS
CORONA         CLEAR     66  18  15 SE13      30.19S
CHINO          CLEAR     48  35  60 N5        30.19S
ONTARIO        CLEAR     53  27  36 N5        30.18S
RIVERSIDE AP   CLEAR     57  23  26 E7        30.19F
MORENO VALLEY    N/A     55  27  34 CALM      28.32S
MARCH ARB      CLEAR     45  25  45 NW6       30.21S
HORSETHIEF CYN   N/A     58  16  19 NW6       30.25S
PERRIS           N/A     63  28  26 E7          N/A
HEMET EAST       N/A     54  10  17 CALM      30.11S
FRENCH VALLEY  FAIR      48  27  43 CALM      30.21S
TEMECULA         N/A     54  30  40 CALM      30.17R

$$

SAN BERNARDINO AND RIVERSIDE COUNTY MOUNTAINS

CITY           SKY/WX    TMP DP  RH WIND       PRES   REMARKS
BIG BEAR AP    CLEAR     25  16  68 CALM      30.40F
PINE COVE        N/A     51  10  19 CALM      30.20S

$$

SOUTHERN DESERT INCLUDING THE COACHELLA VALLEY

CITY           SKY/WX    TMP DP  RH WIND       PRES   REMARKS
PALM SPRINGS   CLEAR     61  21  21 W5        30.25S
THOUSAND PALMS   N/A     54  24  31 NW1       30.22F
PALM DESERT      N/A     51  34  52 CALM        N/A
THERMAL        CLEAR     48  28  46 N6        30.21S
BLYTHE         CLEAR     53  24  32 CALM      30.24S
IMPERIAL AP    CLEAR     48  24  39 W8        30.20F
EL CENTRO NAS  CLEAR     49  20  31 W7        30.22F
YUMA AZ        CLEAR     57  22  25 NW8       30.19
MEXICALI       CLEAR     46  25  42 NW6       30.21S

$$

UPPER DESERT

CITY           SKY/WX    TMP DP  RH WIND       PRES   REMARKS
VICTORVILLE AP CLEAR     39  18  41 CALM      30.34F
HESPERIA         N/A     41  22  46 CALM      30.52S
APPLE VALLEY     N/A     38  20  47 CALM      30.35R
PALMDALE       CLEAR     38  26  62 NW7       30.35S WCI  33
LANCASTER      CLEAR     37  27  67 CALM      30.35S
EDWARDS AFB    CLEAR     42  22  44 N9        30.32F
DAGGETT        CLEAR     42  19  39 CALM      30.33F
29 PALMS N     CLEAR     47  18  31 W9        30.38S
NEEDLES        CLEAR     55  24  30 NW7       30.27F

$$

REGIONAL REPORTS

CITY           SKY/WX    TMP DP  RH WIND       PRES   REMARKS
SANTA BARBARA  CLEAR     48  36  63 CALM      30.18S
SANDBERG       CLEAR     46  21  37 NE15G24   30.34S
LAS VEGAS NV   CLEAR     46  26  45 S3        30.31S
PHOENIX AZ     CLEAR     56  23  27 CALM      30.18S
TIJUANA        CLEAR     63  12  14 CALM      30.16
ENSENADA NW      N/A     65  32  29 N7        30.10S

$$

OFFSHORE ISLANDS

CITY           SKY/WX    TMP DP  RH WIND       PRES   REMARKS
CATALINA ARPT  CLEAR     64  15  15 NE9       30.20S
SAN NICOLAS IS CLEAR    N/A N/A N/A NW9       30.17S

$$

MARINE AND OFFSHORE BUOY REPORTS

STATION/POSITION SKY/WX   TEMP    WIND        PRES    SWELL
                          AIR SEA DIR/SP/G            HT/PER/DIR
                          (F)     (DEG/KT/KT) (MB)    (FT/S/D)
TANNER BANKS               60 59  320/  6/  8 1020.9F   7/310/12
S CLEMENTE BASIN           60 60   20/  4/  4 1020.5F   5/270/14
SAN NICOLAS IS.               57                N/A     7/300/14
SO. S. ROSA ISLA           58 57              1021.0S
W. S. BARBARA CH           58 58  340/  4/  6 1021.7S   7/300/14
M. S. BARBARA CH              58  250/  2/  4 1022.5S   5/260/14
S. MONICA BASIN            65 59   30/ 10/ 12 1021.3F   3/270/14
S PEDRO CHANNEL               59                N/A     2/270/14
DANA POINT                    60                N/A     3/260/14
OCEANSIDE OFFSHR              59                N/A     3/260/13
TORREY PINES OTR              60                N/A     3/230/15
LA JOLLA 1                 61 60   CALM  /  2 1020.7F
SAN DIEGO BAY                 60              1021.4R
POINT LOMA SOUTH              60                N/A     5/260/14

$$





USA.gov is the U.S. government's official web portal to all federal, state and local government web resources and services.